Showing default

SATGUS, 62713

Orbit data source: Space-Track

SATGUS, 62713 is an American payload satellite in SSO that was launched on Tue, 14 Jan 2025 UTC via an FALCON 9 launch vehicle from the Air Force Western Test Range (AFWTR). Payload-class satellites include a variety of spacecraft equipped with specific instruments for various scientific and technological missions. These include communications satellites like Starlink; space stations such as the ISS; scientific satellites like the Hubble; Earth observation satellites from companies like Planet Labs, Umbra, and HawkEye 360; GPS; miniature CubeSats for education and research; and military/defense satellites.

Loading next visibility...
Identifier
62713, 2025-009DJ
Orbit
SSO
Country
Flag of USUS
Related business
Manufacturer
Terran Orbital
Mission
Operational Commercial Imaging
Bus & Motor
CUBESAT 16U, Unknown motor
Mass
0.4 kg wet, 0.2 kg dry
Launch date (UTC)
2025-01-14 (9 months ago)
Launch vehicle
FALCON 9
Launch site
Air Force Western Test Range (AFWTR)
Object type
Payload
Rocket body
Debris
Shape & HBR
Box, 0.6 m
Radar Cross Section
0.100 m², Medium (>0.1 m² and < 1m²)

Expand to show TLE details & history
Last TLE update: 10 hours ago

TLE from 10 hours ago
0 SATGUS
1 62713U 25009DJ  25290.80729860  .00010327  00000-0  90149-3 0  9992
2 62713  97.7265   9.5590 0001828 201.0878 159.0269 14.97006512 41248
Epoch: 2025-10-17T19:22Z
TLE epoch observation values (Epoch: 2025-10-17T19:22:30.599Z)
Latitude
0.00004°
Longitude
52.38413°
Altitude
580.389 km
Speed
7.57 km/s
True Right ascension
00h 38m 14s
True Declination
0° 00' 00"
Sunlit
Object was in full shadow at epoch
Visualization orbit readout
Latitude
Unknown
Longitude
Unknown
Altitude
Unknown
Speed
Unknown
Apparent Right ascension
Unknown
Apparent Declination
Unknown
Sunlit
N/A
Visualization observer readout
Local Sidereal Time
00:13:33
Azimuth
Unknown
Elevation
Unknown
Doppler factor
Unknown
Orbital elements
Apogee altitude
574.433 km
Perigee altitude
571.891 km
Semi-major axis
6,951.299 km
Eccentricity
0.00018
Inclination
97.7265°
RAAN
9.559°
Arg. of periapsis
201.0878°
True anomaly
159.0344°
Mean anomaly
159.0269°
Eccentric anomaly
159.03065°
Mean motion
3.74493 °/min
Orbital period
96.13 mins
BSTAR
0.00090149
Loading maneuver chart data...
Computing Atmospheric mass density...
Loading historical data...
Loading historical data...
Loading historical data...
Loading historical data...
Loading historical data...
Loading historical data...
Loading historical data...

Documentation

Showing up to 5 results
|